When you browse on this site, cookies collect data to enhance your experience and personalize the content and advertising you see.
Visit our Privacy Policy to learn more. By continuing to use the site, you agree to this use of cookies and data.
  • In United Kingdom
  • List of Countries
  • For 7 days
  • Water Temperature
  • Weather Map
  • Weather Widgets
  • user-avatar
    Login

    Hourly Weather Pernik

    Today, 29 January, Wednesday

    Time Temperature Precipitation Wind Pressure Humidity
    00:00 +3°C° 0 mm 2 mps 685 mmHg 82%
    01:00 +3°C° 0 mm 2 mps 685 mmHg 83%
    02:00 +3°C° 0 mm 2 mps 684 mmHg 83%
    03:00 +3°C° 0 mm 2 mps 684 mmHg 84%
    04:00 +2°C° 0 mm 3 mps 683 mmHg 84%
    05:00 +2°C° 0 mm 3 mps 683 mmHg 85%
    06:00 +2°C° 0 mm 3 mps 683 mmHg 86%
    07:00 +2°C° 0 mm 3 mps 683 mmHg 87%
    08:00 +2°C° 0 mm 3 mps 684 mmHg 88%
    09:00 +3°C° 1.7 mm 2 mps 684 mmHg 89%
    10:00 +2°C° 1.7 mm 2 mps 684 mmHg 91%
    11:00 +2°C° 1.7 mm 2 mps 684 mmHg 92%
    12:00 +2°C° 0.6 mm 2 mps 684 mmHg 90%
    13:00 +3°C° 0.6 mm 2 mps 685 mmHg 89%
    14:00 +3°C° 0.6 mm 2 mps 685 mmHg 87%
    15:00 +3°C° 0 mm 2 mps 685 mmHg 88%
    16:00 +4°C° 0 mm 1 mps 685 mmHg 88%
    17:00 +4°C° 0 mm 1 mps 685 mmHg 89%
    18:00 +3°C° 0 mm 1 mps 685 mmHg 89%
    19:00 +2°C° 0 mm 1 mps 685 mmHg 89%
    20:00 +2°C° 0 mm 1 mps 685 mmHg 90%
    21:00 +2°C° 0 mm 1 mps 685 mmHg 89%
    22:00 +2°C° 0 mm 1 mps 686 mmHg 89%
    23:00 +2°C° 0 mm 1 mps 686 mmHg 88%

    Tomorrow, 30 January, Thursday

    Time Temperature Precipitation Wind Pressure Humidity
    00:00 +2°C° 0.2 mm 1 mps 686 mmHg 89%
    01:00 +1°C° 0.2 mm 2 mps 687 mmHg 90%
    02:00 +1°C° 0.2 mm 2 mps 687 mmHg 91%
    03:00 -1°C° 0.1 mm 2 mps 687 mmHg 90%
    04:00 +1°C° 0.1 mm 1 mps 687 mmHg 89%
    05:00 +1°C° 0.1 mm 1 mps 688 mmHg 88%
    06:00 0°C° 0 mm 1 mps 688 mmHg 88%
    07:00 0°C° 0 mm 1 mps 688 mmHg 87%
    08:00 -1°C° 0 mm 1 mps 689 mmHg 87%
    09:00 -1°C° 0 mm 2 mps 689 mmHg 80%
    10:00 +1°C° 0 mm 2 mps 689 mmHg 73%
    11:00 +1°C° 0 mm 3 mps 690 mmHg 67%
    12:00 +1°C° 0 mm 4 mps 690 mmHg 64%
    13:00 +1°C° 0 mm 4 mps 690 mmHg 61%
    14:00 +2°C° 0 mm 5 mps 691 mmHg 58%
    15:00 +1°C° 0 mm 4 mps 690 mmHg 62%
    16:00 +1°C° 0 mm 3 mps 690 mmHg 65%
    17:00 +2°C° 0 mm 2 mps 690 mmHg 69%
    18:00 +1°C° 0 mm 2 mps 690 mmHg 70%
    19:00 +1°C° 0 mm 1 mps 691 mmHg 72%
    20:00 0°C° 0 mm 1 mps 691 mmHg 73%
    21:00 0°C° 0 mm 1 mps 691 mmHg 73%
    22:00 0°C° 0 mm 1 mps 691 mmHg 72%
    23:00 0°C° 0 mm 1 mps 690 mmHg 72%

    Day after tomorrow, 31 January, Friday

    Time Temperature Precipitation Wind Pressure Humidity
    00:00 0°C° 0 mm 1 mps 690 mmHg 71%
    01:00 0°C° 0 mm 1 mps 690 mmHg 71%
    02:00 +1°C° 0 mm 1 mps 690 mmHg 71%
    03:00 +1°C° 0 mm 1 mps 690 mmHg 71%
    04:00 0°C° 0 mm 1 mps 690 mmHg 70%
    05:00 0°C° 0 mm 1 mps 689 mmHg 70%
    06:00 0°C° 0 mm 1 mps 689 mmHg 70%
    07:00 +1°C° 0 mm 1 mps 689 mmHg 69%
    08:00 +1°C° 0 mm 1 mps 689 mmHg 69%
    09:00 +2°C° 0 mm 1 mps 690 mmHg 65%
    10:00 +4°C° 0 mm 1 mps 690 mmHg 61%
    11:00 +4°C° 0 mm 2 mps 690 mmHg 56%
    12:00 +5°C° 0 mm 2 mps 689 mmHg 56%
    13:00 +6°C° 0 mm 2 mps 689 mmHg 55%
    14:00 +7°C° 0 mm 2 mps 689 mmHg 54%
    15:00 +6°C° 0 mm 2 mps 689 mmHg 59%
    16:00 +5°C° 0 mm 2 mps 688 mmHg 64%
    17:00 +5°C° 0 mm 2 mps 688 mmHg 69%
    18:00 +4°C° 0 mm 2 mps 688 mmHg 72%
    19:00 +3°C° 0 mm 2 mps 688 mmHg 75%
    20:00 +3°C° 0 mm 1 mps 688 mmHg 78%
    21:00 +3°C° 0 mm 1 mps 688 mmHg 79%
    22:00 +3°C° 0 mm 1 mps 688 mmHg 81%
    23:00 +3°C° 0 mm 1 mps 688 mmHg 82%

    1 February, Saturday

    Time Temperature Precipitation Wind Pressure Humidity
    00:00 +3°C° 0 mm 1 mps 688 mmHg 82%
    01:00 +3°C° 0 mm 1 mps 689 mmHg 83%
    02:00 +3°C° 0 mm 1 mps 689 mmHg 84%
    03:00 +3°C° 0 mm 1 mps 689 mmHg 84%
    04:00 +3°C° 0 mm 1 mps 689 mmHg 84%
    05:00 +3°C° 0 mm 1 mps 689 mmHg 85%
    06:00 +3°C° 0 mm 1 mps 689 mmHg 85%
    07:00 +3°C° 0 mm 1 mps 689 mmHg 86%
    08:00 +3°C° 0 mm 1 mps 690 mmHg 86%
    09:00 +5°C° 0 mm 1 mps 690 mmHg 82%
    10:00 +6°C° 0 mm 1 mps 691 mmHg 77%
    11:00 +8°C° 0 mm 1 mps 691 mmHg 73%
    12:00 +9°C° 0 mm 1 mps 691 mmHg 71%
    13:00 +10°C° 0 mm 1 mps 690 mmHg 69%
    14:00 +11°C° 0 mm 1 mps 690 mmHg 67%
    15:00 +10°C° 0 mm 1 mps 690 mmHg 70%
    16:00 +9°C° 0 mm 1 mps 690 mmHg 74%
    17:00 +8°C° 0 mm 0 mps 689 mmHg 77%
    18:00 +7°C° 0 mm 0 mps 689 mmHg 79%
    19:00 +6°C° 0 mm 0 mps 689 mmHg 81%
    20:00 +5°C° 0 mm 0 mps 689 mmHg 83%
    21:00 +6°C° 0 mm 1 mps 689 mmHg 83%
    22:00 +5°C° 0 mm 1 mps 689 mmHg 84%
    23:00 +5°C° 0 mm 1 mps 689 mmHg 84%

    2 February, Sunday

    Time Temperature Precipitation Wind Pressure Humidity
    00:00 +5°C° 0 mm 1 mps 689 mmHg 84%
    01:00 +5°C° 0 mm 1 mps 688 mmHg 84%
    02:00 +4°C° 0 mm 1 mps 688 mmHg 85%
    03:00 +4°C° 0 mm 1 mps 688 mmHg 85%
    04:00 +4°C° 0 mm 1 mps 688 mmHg 85%
    05:00 +4°C° 0 mm 1 mps 687 mmHg 86%
    06:00 +3°C° 0 mm 1 mps 687 mmHg 86%
    07:00 +3°C° 0 mm 1 mps 688 mmHg 86%
    08:00 +3°C° 0 mm 1 mps 688 mmHg 86%
    09:00 +5°C° 0 mm 1 mps 688 mmHg 81%
    10:00 +7°C° 0 mm 1 mps 689 mmHg 76%
    11:00 +8°C° 0 mm 1 mps 689 mmHg 71%
    12:00 +8°C° 0 mm 2 mps 689 mmHg 70%
    13:00 +9°C° 0 mm 2 mps 690 mmHg 69%
    14:00 +9°C° 0 mm 3 mps 690 mmHg 68%
    15:00 +8°C° 0 mm 3 mps 690 mmHg 73%
    16:00 +7°C° 0 mm 3 mps 690 mmHg 78%
    17:00 +5°C° 0 mm 3 mps 691 mmHg 83%
    18:00 +4°C° 0 mm 3 mps 691 mmHg 83%
    19:00 +3°C° 0 mm 3 mps 692 mmHg 84%
    20:00 +4°C° 0 mm 2 mps 692 mmHg 84%
    21:00 +3°C° 0 mm 2 mps 693 mmHg 84%
    22:00 +2°C° 0 mm 2 mps 693 mmHg 84%
    23:00 +1°C° 0 mm 2 mps 693 mmHg 85%

    3 February, Monday

    Time Temperature Precipitation Wind Pressure Humidity
    00:00 +1°C° 0 mm 2 mps 693 mmHg 85%
    01:00 +2°C° 0 mm 1 mps 693 mmHg 85%
    02:00 +1°C° 0 mm 1 mps 693 mmHg 85%
    03:00 +1°C° 0 mm 1 mps 693 mmHg 84%
    04:00 +1°C° 0 mm 1 mps 693 mmHg 84%
    05:00 +1°C° 0 mm 1 mps 693 mmHg 83%
    06:00 +1°C° 0 mm 1 mps 694 mmHg 83%
    07:00 +1°C° 0 mm 1 mps 694 mmHg 82%
    08:00 +1°C° 0 mm 1 mps 694 mmHg 82%
    09:00 +2°C° 0 mm 1 mps 694 mmHg 74%
    10:00 +4°C° 0 mm 1 mps 695 mmHg 67%
    11:00 +5°C° 0 mm 1 mps 695 mmHg 60%
    12:00 +6°C° 0 mm 1 mps 695 mmHg 57%
    13:00 +7°C° 0 mm 1 mps 694 mmHg 55%
    14:00 +7°C° 0 mm 2 mps 694 mmHg 52%
    15:00 +8°C° 0 mm 1 mps 694 mmHg 56%
    16:00 +7°C° 0 mm 1 mps 694 mmHg 61%
    17:00 +7°C° 0 mm 1 mps 693 mmHg 65%
    18:00 +6°C° 0 mm 1 mps 693 mmHg 67%
    19:00 +5°C° 0 mm 1 mps 694 mmHg 69%
    20:00 +5°C° 0 mm 1 mps 694 mmHg 71%
    21:00 +4°C° 0 mm 1 mps 694 mmHg 72%
    22:00 +4°C° 0 mm 1 mps 694 mmHg 73%
    23:00 +4°C° 0 mm 1 mps 694 mmHg 73%
    Show more